Darstellungsparameter: Aktuell verwendete Einstellungen:
Skalierung der Graphiken ... ?
xyx+y,   Skalierungsfaktor:      Skalierung: Modus: x, Faktor: 1
Darstellungszeitraum ... ?
Vom - - bis: - -   Zeitraum: 25.03.2016 - 25.03.2016
Min/Max/Avg-Anzeige ... ?
Zeige MMA aktuell
Zeige MMA Monat
Zeige MMA alles
Zeige --A aktuell
Zeige --A Monat
Zeige --A alles
Keine MMA-Anzeige
MMA:
Keine MMA-Graphiken
MMA-Basis: 25.03.2016 - 25.03.2016
Quicknavigation für Darstellung... ?
Tage:      1T, 2T, 3T, 5T -1T -2T -3T -5T +1T +2T +3T +5T
Wochen: 1W, 2W, 3W -1W -2W -3W +1W +2W +3W
Monate: 1M, 3M, 6M -1M -3M -6M +1M +3M +6M
Jahre:    1J, 3J, 5J, 10J -1J -3J -5J -10J +1J +3J +5J +10J
Nutze für die Darstellung ... ?
Originaldaten oder Mittelwerte auf ...
Stundenbasis Tagesbasis Wochenbasis
Monatsbasis Jahresbasis      Datenbasis: Original-Daten
Darstellen als:
Statistik (Auto) Statistik J:M      Darstellung:
Zur Graphik,    zurück zur Übersicht aller Sensoren.
 
Tabellarische Datenbersicht: ?
 
Sensor: Nr:Datum:Temp:Feuchte:Taupunkt:
Aussen-T/F 1 25-03-2016 00:00:00 5.8 C 93 % 4.76 C
2 25-03-2016 00:05:00 5.8 C 93 % 4.76 C
3 25-03-2016 00:10:00 5.8 C 93 % 4.76 C
4 25-03-2016 00:15:00 5.8 C 93 % 4.76 C
5 25-03-2016 00:20:00 5.8 C 93 % 4.76 C
6 25-03-2016 00:25:00 5.8 C 93 % 4.76 C
7 25-03-2016 00:30:00 5.9 C 93 % 4.86 C
8 25-03-2016 00:35:00 5.9 C 93 % 4.86 C
9 25-03-2016 00:40:00 5.9 C 93 % 4.86 C
10 25-03-2016 00:45:00 5.9 C 93 % 4.86 C
11 25-03-2016 00:50:00 5.9 C 93 % 4.86 C
12 25-03-2016 00:55:00 5.9 C 93 % 4.86 C
13 25-03-2016 01:00:00 5.9 C 93 % 4.86 C
14 25-03-2016 01:05:00 5.9 C 93 % 4.86 C
15 25-03-2016 01:10:00 5.9 C 93 % 4.86 C
16 25-03-2016 01:15:00 5.9 C 93 % 4.86 C
17 25-03-2016 01:20:00 5.9 C 92 % 4.7 C
18 25-03-2016 01:25:00 5.9 C 92 % 4.7 C
19 25-03-2016 01:30:00 5.9 C 92 % 4.7 C
20 25-03-2016 01:35:00 5.9 C 92 % 4.7 C
21 25-03-2016 01:40:00 5.9 C 93 % 4.86 C
22 25-03-2016 01:45:00 6 C 92 % 4.8 C
23 25-03-2016 01:50:00 6 C 92 % 4.8 C
24 25-03-2016 01:55:00 6 C 93 % 4.96 C
25 25-03-2016 02:00:00 6 C 92 % 4.8 C
Sensor: Nr:Datum:Temp:Feuchte:Taupunkt:
Aussen-T/F 26 25-03-2016 02:05:00 6 C 92 % 4.8 C
27 25-03-2016 02:10:00 6.1 C 92 % 4.9 C
28 25-03-2016 02:15:00 6.1 C 92 % 4.9 C
29 25-03-2016 02:20:00 6.1 C 91 % 4.74 C
30 25-03-2016 02:25:00 6.2 C 91 % 4.84 C
31 25-03-2016 02:30:00 6.2 C 91 % 4.84 C
32 25-03-2016 02:35:00 6.2 C 91 % 4.84 C
33 25-03-2016 02:40:00 6.2 C 91 % 4.84 C
34 25-03-2016 02:45:00 6.2 C 91 % 4.84 C
35 25-03-2016 02:50:00 6.2 C 90 % 4.69 C
36 25-03-2016 02:55:00 6.3 C 90 % 4.78 C
37 25-03-2016 03:00:00 6.3 C 89 % 4.62 C
38 25-03-2016 03:05:00 6.4 C 89 % 4.72 C
39 25-03-2016 03:10:00 6.6 C 88 % 4.76 C
40 25-03-2016 03:15:00 6.6 C 87 % 4.6 C
41 25-03-2016 03:20:00 6.7 C 87 % 4.69 C
42 25-03-2016 03:25:00 6.8 C 86 % 4.63 C
43 25-03-2016 03:30:00 6.8 C 87 % 4.79 C
44 25-03-2016 03:35:00 6.8 C 86 % 4.63 C
45 25-03-2016 03:40:00 6.8 C 87 % 4.79 C
46 25-03-2016 03:45:00 6.8 C 87 % 4.79 C
47 25-03-2016 03:50:00 6.7 C 87 % 4.69 C
48 25-03-2016 03:55:00 6.7 C 87 % 4.69 C
49 25-03-2016 04:00:00 6.6 C 88 % 4.76 C
50 25-03-2016 04:05:00 6.6 C 89 % 4.92 C
Sensor: Nr:Datum:Temp:Feuchte:Taupunkt:
Aussen-T/F 51 25-03-2016 04:10:00 6.6 C 90 % 5.08 C
52 25-03-2016 04:15:00 6.5 C 90 % 4.98 C
53 25-03-2016 04:20:00 6.4 C 91 % 5.04 C
54 25-03-2016 04:25:00 6.4 C 91 % 5.04 C
55 25-03-2016 04:30:00 6.3 C 91 % 4.94 C
56 25-03-2016 04:35:00 6.3 C 91 % 4.94 C
57 25-03-2016 04:40:00 6.3 C 92 % 5.1 C
58 25-03-2016 04:45:00 6.2 C 92 % 5 C
59 25-03-2016 04:50:00 6.2 C 92 % 5 C
60 25-03-2016 04:55:00 6.2 C 92 % 5 C
61 25-03-2016 05:00:00 6.1 C 92 % 4.9 C
62 25-03-2016 05:05:00 6.1 C 93 % 5.06 C
63 25-03-2016 05:10:00 6.1 C 93 % 5.06 C
64 25-03-2016 05:15:00 6 C 93 % 4.96 C
65 25-03-2016 05:20:00 5.9 C 93 % 4.86 C
66 25-03-2016 05:25:00 5.9 C 93 % 4.86 C
67 25-03-2016 05:30:00 5.9 C 93 % 4.86 C
68 25-03-2016 05:35:00 5.9 C 93 % 4.86 C
69 25-03-2016 05:40:00 5.9 C 93 % 4.86 C
70 25-03-2016 05:45:00 5.9 C 93 % 4.86 C
71 25-03-2016 05:50:00 5.9 C 93 % 4.86 C
72 25-03-2016 05:55:00 5.8 C 93 % 4.76 C
73 25-03-2016 06:00:00 5.8 C 94 % 4.91 C
74 25-03-2016 06:05:00 5.8 C 94 % 4.91 C
75 25-03-2016 06:10:00 5.7 C 94 % 4.81 C
Sensor: Nr:Datum:Temp:Feuchte:Taupunkt:
Aussen-T/F 76 25-03-2016 06:15:00 5.7 C 94 % 4.81 C
77 25-03-2016 06:20:00 5.7 C 94 % 4.81 C
78 25-03-2016 06:25:00 5.7 C 94 % 4.81 C
79 25-03-2016 06:30:00 5.7 C 94 % 4.81 C
80 25-03-2016 06:35:00 5.7 C 94 % 4.81 C
81 25-03-2016 06:40:00 5.7 C 94 % 4.81 C
82 25-03-2016 06:45:00 5.7 C 94 % 4.81 C
83 25-03-2016 06:50:00 5.7 C 94 % 4.81 C
84 25-03-2016 06:55:00 5.7 C 94 % 4.81 C
85 25-03-2016 07:00:00 5.8 C 95 % 5.06 C
86 25-03-2016 07:05:00 5.8 C 95 % 5.06 C
87 25-03-2016 07:10:00 5.8 C 95 % 5.06 C
88 25-03-2016 07:15:00 5.8 C 95 % 5.06 C
89 25-03-2016 07:20:00 5.8 C 95 % 5.06 C
90 25-03-2016 07:25:00 5.9 C 95 % 5.16 C
91 25-03-2016 07:30:00 5.9 C 95 % 5.16 C
92 25-03-2016 07:35:00 6 C 95 % 5.26 C
93 25-03-2016 07:40:00 6.1 C 94 % 5.21 C
94 25-03-2016 07:45:00 6.1 C 94 % 5.21 C
95 25-03-2016 07:50:00 6.2 C 94 % 5.31 C
96 25-03-2016 07:55:00 6.3 C 95 % 5.56 C
97 25-03-2016 08:00:00 6.3 C 94 % 5.41 C
98 25-03-2016 08:05:00 6.5 C 94 % 5.61 C
99 25-03-2016 08:10:00 6.5 C 94 % 5.61 C
100 25-03-2016 08:15:00 6.6 C 94 % 5.71 C
Sensor: Nr:Datum:Temp:Feuchte:Taupunkt:
Aussen-T/F 101 25-03-2016 08:20:00 6.6 C 94 % 5.71 C
102 25-03-2016 08:25:00 6.7 C 94 % 5.8 C
103 25-03-2016 08:30:00 6.7 C 94 % 5.8 C
104 25-03-2016 08:35:00 6.7 C 93 % 5.65 C
105 25-03-2016 08:40:00 6.8 C 93 % 5.75 C
106 25-03-2016 08:45:00 6.8 C 93 % 5.75 C
107 25-03-2016 08:50:00 6.9 C 93 % 5.85 C
108 25-03-2016 08:55:00 6.9 C 93 % 5.85 C
109 25-03-2016 09:00:00 7 C 93 % 5.95 C
110 25-03-2016 09:05:00 7.1 C 92 % 5.89 C
111 25-03-2016 09:10:00 7.1 C 92 % 5.89 C
112 25-03-2016 09:15:00 7.2 C 92 % 5.99 C
113 25-03-2016 09:20:00 7.2 C 92 % 5.99 C
114 25-03-2016 09:25:00 7.3 C 91 % 5.93 C
115 25-03-2016 09:30:00 7.3 C 91 % 5.93 C
116 25-03-2016 09:35:00 7.3 C 91 % 5.93 C
117 25-03-2016 09:40:00 7.3 C 91 % 5.93 C
118 25-03-2016 09:45:00 7.4 C 91 % 6.03 C
119 25-03-2016 09:50:00 7.4 C 91 % 6.03 C
120 25-03-2016 09:55:00 7.5 C 92 % 6.29 C
121 25-03-2016 10:00:00 7.5 C 91 % 6.13 C
122 25-03-2016 10:05:00 7.6 C 91 % 6.23 C
123 25-03-2016 10:10:00 7.6 C 92 % 6.39 C
124 25-03-2016 10:15:00 7.6 C 92 % 6.39 C
125 25-03-2016 10:20:00 7.7 C 92 % 6.48 C
Sensor: Nr:Datum:Temp:Feuchte:Taupunkt:
Aussen-T/F 126 25-03-2016 10:25:00 7.7 C 92 % 6.48 C
127 25-03-2016 10:30:00 7.7 C 92 % 6.48 C
128 25-03-2016 10:35:00 7.7 C 92 % 6.48 C
129 25-03-2016 10:40:00 7.7 C 92 % 6.48 C
130 25-03-2016 10:45:00 7.7 C 92 % 6.48 C
131 25-03-2016 10:50:00 7.7 C 92 % 6.48 C
132 25-03-2016 10:55:00 7.6 C 91 % 6.23 C
133 25-03-2016 11:00:00 7.6 C 92 % 6.39 C
134 25-03-2016 11:05:00 7.5 C 92 % 6.29 C
135 25-03-2016 11:10:00 7.6 C 92 % 6.39 C
136 25-03-2016 11:15:00 7.6 C 93 % 6.54 C
137 25-03-2016 11:20:00 7.6 C 93 % 6.54 C
138 25-03-2016 11:25:00 7.6 C 93 % 6.54 C
139 25-03-2016 11:30:00 7.7 C 93 % 6.64 C
140 25-03-2016 11:35:00 7.6 C 92 % 6.39 C
141 25-03-2016 11:40:00 7.5 C 92 % 6.29 C
142 25-03-2016 11:45:00 7.4 C 92 % 6.19 C
143 25-03-2016 11:50:00 7.4 C 93 % 6.34 C
144 25-03-2016 11:55:00 7.4 C 93 % 6.34 C
145 25-03-2016 12:00:00 7.4 C 92 % 6.19 C
146 25-03-2016 12:05:00 7.3 C 92 % 6.09 C
147 25-03-2016 12:10:00 7.3 C 92 % 6.09 C
148 25-03-2016 12:15:00 7.2 C 93 % 6.15 C
149 25-03-2016 12:20:00 7.2 C 93 % 6.15 C
150 25-03-2016 12:25:00 7.1 C 93 % 6.05 C
Sensor: Nr:Datum:Temp:Feuchte:Taupunkt:
Aussen-T/F 151 25-03-2016 12:30:00 7.1 C 93 % 6.05 C
152 25-03-2016 12:35:00 7 C 93 % 5.95 C
153 25-03-2016 12:40:00 6.9 C 93 % 5.85 C
154 25-03-2016 12:45:00 6.9 C 93 % 5.85 C
155 25-03-2016 12:50:00 6.9 C 93 % 5.85 C
156 25-03-2016 12:55:00 6.9 C 93 % 5.85 C
157 25-03-2016 13:00:00 6.9 C 93 % 5.85 C
158 25-03-2016 13:05:00 7 C 94 % 6.1 C
159 25-03-2016 13:10:00 7 C 93 % 5.95 C
160 25-03-2016 13:15:00 7 C 93 % 5.95 C
161 25-03-2016 13:20:00 7 C 93 % 5.95 C
162 25-03-2016 13:25:00 7.1 C 94 % 6.2 C
163 25-03-2016 13:30:00 7.1 C 94 % 6.2 C
164 25-03-2016 13:35:00 7.2 C 94 % 6.3 C
165 25-03-2016 13:40:00 7.2 C 94 % 6.3 C
166 25-03-2016 13:45:00 7.3 C 94 % 6.4 C
167 25-03-2016 13:50:00 7.3 C 93 % 6.25 C
168 25-03-2016 13:55:00 7.4 C 94 % 6.5 C
169 25-03-2016 14:00:00 7.4 C 94 % 6.5 C
170 25-03-2016 14:05:00 7.5 C 94 % 6.6 C
171 25-03-2016 14:10:00 7.6 C 94 % 6.7 C
172 25-03-2016 14:15:00 7.5 C 93 % 6.44 C
173 25-03-2016 14:20:00 7.4 C 93 % 6.34 C
174 25-03-2016 14:25:00 7.5 C 93 % 6.44 C
175 25-03-2016 14:30:00 7.5 C 93 % 6.44 C
Sensor: Nr:Datum:Temp:Feuchte:Taupunkt:
Aussen-T/F 176 25-03-2016 14:35:00 7.4 C 93 % 6.34 C
177 25-03-2016 14:40:00 7.4 C 93 % 6.34 C
178 25-03-2016 14:45:00 7.4 C 93 % 6.34 C
179 25-03-2016 14:50:00 7.3 C 93 % 6.25 C
180 25-03-2016 14:55:00 7.4 C 93 % 6.34 C
181 25-03-2016 15:00:00 7.4 C 93 % 6.34 C
182 25-03-2016 15:05:00 7.4 C 94 % 6.5 C
183 25-03-2016 15:10:00 7.4 C 94 % 6.5 C
184 25-03-2016 15:15:00 7.4 C 94 % 6.5 C
185 25-03-2016 15:20:00 7.5 C 94 % 6.6 C
186 25-03-2016 15:25:00 7.6 C 94 % 6.7 C
187 25-03-2016 15:30:00 7.6 C 94 % 6.7 C
188 25-03-2016 15:35:00 7.6 C 94 % 6.7 C
189 25-03-2016 15:40:00 7.7 C 94 % 6.8 C
190 25-03-2016 15:45:00 7.7 C 94 % 6.8 C
191 25-03-2016 15:50:00 7.7 C 94 % 6.8 C
192 25-03-2016 15:55:00 7.7 C 94 % 6.8 C
193 25-03-2016 16:00:00 7.7 C 94 % 6.8 C
194 25-03-2016 16:05:00 7.7 C 94 % 6.8 C
195 25-03-2016 16:10:00 7.7 C 94 % 6.8 C
196 25-03-2016 16:15:00 7.7 C 94 % 6.8 C
197 25-03-2016 16:20:00 7.7 C 94 % 6.8 C
198 25-03-2016 16:25:00 7.8 C 94 % 6.9 C
199 25-03-2016 16:30:00 7.8 C 94 % 6.9 C
200 25-03-2016 16:35:00 7.8 C 94 % 6.9 C
Sensor: Nr:Datum:Temp:Feuchte:Taupunkt:
Aussen-T/F 201 25-03-2016 16:40:00 7.8 C 94 % 6.9 C
202 25-03-2016 16:45:00 7.8 C 94 % 6.9 C
203 25-03-2016 16:50:00 7.8 C 94 % 6.9 C
204 25-03-2016 16:55:00 7.8 C 94 % 6.9 C
205 25-03-2016 17:00:00 7.8 C 94 % 6.9 C
206 25-03-2016 17:05:00 7.8 C 94 % 6.9 C
207 25-03-2016 17:10:00 7.8 C 94 % 6.9 C
208 25-03-2016 17:15:00 7.8 C 94 % 6.9 C
209 25-03-2016 17:20:00 7.8 C 95 % 7.05 C
210 25-03-2016 17:25:00 7.8 C 95 % 7.05 C
211 25-03-2016 17:30:00 7.8 C 95 % 7.05 C
212 25-03-2016 17:35:00 7.8 C 95 % 7.05 C
213 25-03-2016 17:40:00 7.8 C 94 % 6.9 C
214 25-03-2016 17:45:00 7.8 C 94 % 6.9 C
215 25-03-2016 17:50:00 7.8 C 93 % 6.74 C
216 25-03-2016 17:55:00 7.8 C 93 % 6.74 C
217 25-03-2016 18:00:00 7.8 C 93 % 6.74 C
218 25-03-2016 18:05:00 7.8 C 93 % 6.74 C
219 25-03-2016 18:10:00 7.7 C 93 % 6.64 C
220 25-03-2016 18:15:00 7.7 C 93 % 6.64 C
221 25-03-2016 18:20:00 7.7 C 93 % 6.64 C
222 25-03-2016 18:25:00 7.8 C 94 % 6.9 C
223 25-03-2016 18:30:00 7.8 C 94 % 6.9 C
224 25-03-2016 18:35:00 7.7 C 93 % 6.64 C
225 25-03-2016 18:40:00 7.6 C 93 % 6.54 C
Sensor: Nr:Datum:Temp:Feuchte:Taupunkt:
Aussen-T/F 226 25-03-2016 18:45:00 7.3 C 93 % 6.25 C
227 25-03-2016 18:50:00 7.1 C 93 % 6.05 C
228 25-03-2016 18:55:00 6.8 C 93 % 5.75 C
229 25-03-2016 19:00:00 6.7 C 94 % 5.8 C
230 25-03-2016 19:05:00 6.7 C 94 % 5.8 C
231 25-03-2016 19:10:00 6.8 C 94 % 5.9 C
232 25-03-2016 19:15:00 6.8 C 95 % 6.06 C
233 25-03-2016 19:20:00 6.8 C 95 % 6.06 C
234 25-03-2016 19:25:00 6.9 C 95 % 6.16 C
235 25-03-2016 19:30:00 6.9 C 95 % 6.16 C
236 25-03-2016 19:35:00 6.9 C 95 % 6.16 C
237 25-03-2016 19:40:00 6.9 C 95 % 6.16 C
238 25-03-2016 19:45:00 7.1 C 94 % 6.2 C
239 25-03-2016 19:50:00 7.2 C 94 % 6.3 C
240 25-03-2016 19:55:00 7.3 C 92 % 6.09 C
241 25-03-2016 20:00:00 7.5 C 91 % 6.13 C
242 25-03-2016 20:05:00 7.6 C 90 % 6.07 C
243 25-03-2016 20:10:00 7.6 C 90 % 6.07 C
244 25-03-2016 20:15:00 7.6 C 89 % 5.91 C
245 25-03-2016 20:20:00 7.7 C 90 % 6.17 C
246 25-03-2016 20:25:00 7.6 C 90 % 6.07 C
247 25-03-2016 20:30:00 7.7 C 90 % 6.17 C
248 25-03-2016 20:35:00 7.7 C 90 % 6.17 C
249 25-03-2016 20:40:00 7.6 C 90 % 6.07 C
250 25-03-2016 20:45:00 7.6 C 90 % 6.07 C
Sensor: Nr:Datum:Temp:Feuchte:Taupunkt:
Aussen-T/F 251 25-03-2016 20:50:00 7.6 C 90 % 6.07 C
252 25-03-2016 20:55:00 7.6 C 90 % 6.07 C
253 25-03-2016 21:00:00 7.6 C 90 % 6.07 C
254 25-03-2016 21:05:00 7.6 C 90 % 6.07 C
255 25-03-2016 21:10:00 7.6 C 90 % 6.07 C
256 25-03-2016 21:15:00 7.6 C 90 % 6.07 C
257 25-03-2016 21:20:00 7.6 C 90 % 6.07 C
258 25-03-2016 21:25:00 7.6 C 91 % 6.23 C
259 25-03-2016 21:30:00 7.5 C 91 % 6.13 C
260 25-03-2016 21:35:00 7.4 C 91 % 6.03 C
261 25-03-2016 21:40:00 7.4 C 91 % 6.03 C
262 25-03-2016 21:45:00 7.3 C 92 % 6.09 C
263 25-03-2016 21:50:00 7.3 C 92 % 6.09 C
264 25-03-2016 21:55:00 7.3 C 92 % 6.09 C
265 25-03-2016 22:00:00 7.2 C 92 % 5.99 C
266 25-03-2016 22:05:00 7.2 C 92 % 5.99 C
267 25-03-2016 22:10:00 7.1 C 93 % 6.05 C
268 25-03-2016 22:15:00 7.1 C 93 % 6.05 C
269 25-03-2016 22:20:00 7.1 C 93 % 6.05 C
270 25-03-2016 22:25:00 7.1 C 93 % 6.05 C
271 25-03-2016 22:30:00 7.1 C 93 % 6.05 C
272 25-03-2016 22:35:00 7 C 93 % 5.95 C
273 25-03-2016 22:40:00 7.1 C 93 % 6.05 C
274 25-03-2016 22:45:00 7.1 C 93 % 6.05 C
275 25-03-2016 22:50:00 7.1 C 93 % 6.05 C
Sensor: Nr:Datum:Temp:Feuchte:Taupunkt:
Aussen-T/F 276 25-03-2016 22:55:00 7.1 C 93 % 6.05 C
277 25-03-2016 23:00:00 7.1 C 93 % 6.05 C
278 25-03-2016 23:05:00 7.1 C 93 % 6.05 C
279 25-03-2016 23:10:00 7.1 C 93 % 6.05 C
280 25-03-2016 23:15:00 7.2 C 92 % 5.99 C
281 25-03-2016 23:20:00 7.2 C 92 % 5.99 C
282 25-03-2016 23:25:00 7.2 C 92 % 5.99 C
283 25-03-2016 23:30:00 7.2 C 92 % 5.99 C
284 25-03-2016 23:35:00 7.1 C 92 % 5.89 C
285 25-03-2016 23:40:00 7.1 C 92 % 5.89 C
286 25-03-2016 23:45:00 7.2 C 92 % 5.99 C
287 25-03-2016 23:50:00 7.2 C 92 % 5.99 C
288 25-03-2016 23:55:00 7.2 C 92 % 5.99 C

Legende:
   Min
   Max


Maximal/Minimal-Werte vom 25.03.2016 - 25.03.2016

Sensor Min Max Avg
Temp
(Aussen-T/F)
5.7 °C
25-03-2016  06:10:00
7.8 °C
25-03-2016  16:25:00
6.93 °C
Feuchte
(Aussen-T/F)
86 %
25-03-2016  03:25:00
95 %
25-03-2016  07:00:00
92.53 %
Taupunkt
(Aussen-T/F)
4.6 C
25-03-2016  03:15:00
7.05 C
25-03-2016  17:20:00
5.79 C

Die Daten stammen von einer Davis Vantage Pro 2 Wetter-Station und werden unter Linux mit der Software wview2wettercgi und aufbereitet. Alle Angaben erfolgen ohne Gewähr für ihre Vollständigkeit oder Richtigkeit.
Kontakt: Rainer Krienke krienke@uni-koblenz.de . Meine Webseiten an der Uni Koblenz oder privat.
Version: $Revision: 0.78 $